Weather History for KVOK - July, 2012

Change the Weather History Date:

Sunday, July 15, 2012

  Actual Average Record
Temperature  
Mean Temperature 76 °F -  
Max Temperature 93 °F 78 °F 96 °F (2006)
Min Temperature 62 °F 63 °F 41 °F (2007)
Cooling Degree Days 12    
Growing Degree Days 26 (Base 50)    
Moisture  
Dew Point 66 °F    
Average Humidity 94    
Maximum Humidity 100    
Minimum Humidity 38    
Precipitation  
Precipitation 0.00 in - - ()
Sea Level Pressure  
Sea Level Pressure 30.00 in    
Wind  
Wind Speed 2 mph (WNW)    
Max Wind Speed 7 mph    
Max Gust Speed -    
Visibility 3 miles    
Events Fog    
Averages and records for this station are not official NWS values.
T = Trace of Precipitation, MM = Missing Value Source: NWS Daily Summary

Daily Weather History Graph

Daily Weather History Graph

Search for Another Location

Airport or City:

Trip Planner

Search our weather history database for the weather conditions in past years. The results will help you decide how hot, cold, wet, or windy it might be!

Date:

Astronomy

Jul. 15, 2012 Rise Set
Actual Time 5:32 AM CDT 8:40 PM CDT
Civil Twilight 4:57 AM CDT 9:15 PM CDT
Nautical Twilight 4:13 AM CDT 10:00 PM CDT
Astronomical Twilight 3:18 AM CDT 10:54 PM CDT
Moon 2:29 AM CDT (7/15) 5:57 PM CDT (7/15)
Length of Visible Light 16h 17m
Length of Day
15h 08m
Waning Crescent, 11% of the Moon is Illuminated
Jul 15
Waning Crescent
Jul 18
New
Jul 26
First Quarter
Aug 1
Full
Aug 9
Last Quarter

Hourly Weather History & Observations

Time (CDT) Temp. Heat Index Dew Point Humidity Pressure Visibility Wind Dir Wind Speed Gust Speed Precip Events Conditions
12:03 AM 68.0 °F - 68.0 °F 100% 30.00 in 1.8 mi Calm Calm - N/A   Clear
12:04 AM 68.0 °F - 68.0 °F 100% 30.00 in 1.2 mi Calm Calm - N/A   Clear
12:05 AM 66.2 °F - 66.2 °F 100% 30.00 in 1.0 mi Calm Calm - N/A   Clear
12:06 AM 66.2 °F - 66.2 °F 100% 30.00 in 0.8 mi ESE 3.5 mph - N/A   Clear
12:15 AM 66.2 °F - 66.2 °F 100% 30.00 in 1.0 mi Calm Calm - N/A   Clear
12:17 AM 66.2 °F - 66.2 °F 100% 30.00 in 1.5 mi Calm Calm - N/A   Clear
12:18 AM 68.0 °F - 66.2 °F 94% 30.00 in 1.8 mi Calm Calm - N/A   Clear
12:20 AM 68.0 °F - 68.0 °F 100% 30.00 in 1.5 mi Calm Calm - N/A   Clear
12:22 AM 68.0 °F - 68.0 °F 100% 30.00 in 1.2 mi Calm Calm - N/A   Clear
12:24 AM 68.0 °F - 68.0 °F 100% 30.00 in 1.0 mi Calm Calm - N/A   Clear
12:29 AM 68.0 °F - 68.0 °F 100% 29.99 in 1.2 mi Calm Calm - N/A   Clear
12:31 AM 68.0 °F - 68.0 °F 100% 29.99 in 1.5 mi Calm Calm - N/A   Clear
12:32 AM 68.0 °F - 68.0 °F 100% 29.99 in 1.8 mi Calm Calm - N/A   Clear
12:33 AM 68.0 °F - 68.0 °F 100% 29.99 in 2.0 mi Calm Calm - N/A   Clear
12:34 AM 68.0 °F - 68.0 °F 100% 29.99 in 3.0 mi Calm Calm - N/A   Clear
12:46 AM 66.2 °F - 66.2 °F 100% 30.00 in 2.0 mi Calm Calm - N/A   Clear
12:47 AM 66.2 °F - 66.2 °F 100% 29.99 in 1.5 mi Calm Calm - N/A   Clear
12:48 AM 66.2 °F - 66.2 °F 100% 29.99 in 1.0 mi Calm Calm - N/A   Clear
12:50 AM 66.2 °F - 66.2 °F 100% 29.99 in 0.8 mi Calm Calm - N/A   Clear
12:51 AM 66.2 °F - 66.2 °F 100% 29.99 in 0.5 mi Calm Calm - N/A Fog Fog
12:54 AM 66.2 °F - 66.2 °F 100% 29.99 in 0.2 mi Calm Calm - N/A Fog Fog
12:55 AM 65.3 °F - 65.3 °F 100% 30.00 in 0.2 mi Calm Calm - N/A Fog Fog
1:18 AM 64.4 °F - 64.4 °F 100% 29.99 in 0.5 mi WNW 3.5 mph - N/A Fog Fog
1:24 AM 64.4 °F - 64.4 °F 100% 29.99 in 0.8 mi WNW 4.6 mph - N/A   Clear
1:26 AM 64.4 °F - 64.4 °F 100% 29.99 in 1.0 mi WNW 4.6 mph - N/A   Clear
1:28 AM 64.4 °F - 64.4 °F 100% 29.99 in 1.2 mi WNW 5.8 mph - N/A   Clear
1:30 AM 64.4 °F - 64.4 °F 100% 29.99 in 1.5 mi WNW 5.8 mph - N/A   Clear
1:32 AM 64.4 °F - 64.4 °F 100% 29.99 in 1.8 mi West 5.8 mph - N/A   Clear
1:33 AM 64.4 °F - 64.4 °F 100% 29.99 in 1.5 mi West 4.6 mph - N/A   Clear
1:34 AM 64.4 °F - 64.4 °F 100% 29.99 in 1.2 mi West 4.6 mph - N/A   Clear
1:35 AM 64.4 °F - 64.4 °F 100% 29.99 in 1.0 mi West 4.6 mph - N/A   Clear
1:36 AM 64.4 °F - 64.4 °F 100% 29.99 in 0.8 mi West 4.6 mph - N/A   Clear
1:38 AM 64.4 °F - 64.4 °F 100% 29.99 in 0.5 mi West 3.5 mph - N/A Fog Fog
1:52 AM 64.4 °F - 64.4 °F 100% 29.99 in 0.8 mi West 4.6 mph - N/A   Clear
1:55 AM 64.6 °F - 64.6 °F 100% 29.99 in 1.0 mi West 4.6 mph - N/A   Clear
1:57 AM 64.4 °F - 64.4 °F 100% 29.99 in 1.2 mi West 3.5 mph - N/A   Clear
1:58 AM 64.4 °F - 64.4 °F 100% 29.99 in 1.8 mi West 3.5 mph - N/A   Clear
1:59 AM 64.4 °F - 64.4 °F 100% 29.99 in 2.5 mi West 3.5 mph - N/A   Clear
2:00 AM 64.4 °F - 64.4 °F 100% 29.99 in 3.0 mi West 3.5 mph - N/A   Clear
2:02 AM 64.4 °F - 64.4 °F 100% 29.99 in 2.5 mi West 3.5 mph - N/A   Clear
2:03 AM 64.4 °F - 64.4 °F 100% 29.99 in 2.0 mi West 3.5 mph - N/A   Clear
2:04 AM 64.4 °F - 64.4 °F 100% 29.99 in 1.5 mi WNW 3.5 mph - N/A   Clear
2:05 AM 64.4 °F - 64.4 °F 100% 29.99 in 1.2 mi WNW 3.5 mph - N/A   Clear
2:06 AM 64.4 °F - 64.4 °F 100% 29.99 in 1.0 mi WNW 3.5 mph - N/A   Clear
2:12 AM 64.4 °F - 64.4 °F 100% 29.99 in 1.2 mi Calm Calm - N/A   Clear
2:13 AM 64.4 °F - 64.4 °F 100% 29.99 in 1.5 mi Calm Calm - N/A   Clear
2:14 AM 64.4 °F - 64.4 °F 100% 29.99 in 1.8 mi Calm Calm - N/A   Clear
2:15 AM 64.4 °F - 64.4 °F 100% 29.99 in 2.5 mi Calm Calm - N/A   Clear
2:16 AM 64.4 °F - 64.4 °F 100% 29.99 in 4.0 mi Calm Calm - N/A   Clear
2:55 AM 64.4 °F - 64.4 °F 100% 29.99 in 3.0 mi Calm Calm - N/A   Clear
2:56 AM 64.4 °F - 64.4 °F 100% 29.99 in 2.5 mi Calm Calm - N/A   Clear
2:57 AM 64.4 °F - 64.4 °F 100% 29.99 in 2.0 mi Calm Calm - N/A   Clear
2:58 AM 64.4 °F - 64.4 °F 100% 29.99 in 1.5 mi Calm Calm - N/A   Clear
2:59 AM 64.4 °F - 64.4 °F 100% 29.99 in 1.0 mi Calm Calm - N/A   Clear
3:01 AM 64.4 °F - 64.4 °F 100% 29.99 in 0.8 mi Calm Calm - N/A   Clear
3:04 AM 64.4 °F - 64.4 °F 100% 29.99 in 0.5 mi Calm Calm - N/A Fog Fog
3:27 AM 62.6 °F - 62.6 °F 100% 29.99 in 0.8 mi WNW 3.5 mph - N/A   Clear
3:31 AM 62.6 °F - 62.6 °F 100% 29.99 in 1.0 mi WNW 3.5 mph - N/A   Clear
3:34 AM 62.6 °F - 62.6 °F 100% 29.99 in 1.2 mi WNW 4.6 mph - N/A   Clear
3:40 AM 62.6 °F - 62.6 °F 100% 29.99 in 1.0 mi West 4.6 mph - N/A   Clear
3:48 AM 62.6 °F - 62.6 °F 100% 29.99 in 1.2 mi West 3.5 mph - N/A   Clear
3:49 AM 62.6 °F - 62.6 °F 100% 29.99 in 1.5 mi West 3.5 mph - N/A   Clear
3:50 AM 62.6 °F - 62.6 °F 100% 29.99 in 1.8 mi West 3.5 mph - N/A   Clear
3:51 AM 62.6 °F - 62.6 °F 100% 29.99 in 2.5 mi West 3.5 mph - N/A   Clear
3:52 AM 62.6 °F - 62.6 °F 100% 29.99 in 3.0 mi West 3.5 mph - N/A   Clear
3:55 AM 63.7 °F - 63.7 °F 100% 29.99 in 9.0 mi WNW 3.5 mph - N/A   Clear
4:55 AM 62.1 °F - 62.1 °F 100% 30.00 in 8.0 mi Calm Calm - N/A   Clear
5:01 AM 62.6 °F - 62.6 °F 100% 30.00 in 2.5 mi Calm Calm - N/A   Clear
5:02 AM 62.6 °F - 62.6 °F 100% 30.00 in 1.5 mi Calm Calm - N/A   Clear
5:03 AM 62.6 °F - 62.6 °F 100% 30.00 in 1.0 mi Calm Calm - N/A   Clear
5:04 AM 62.6 °F - 62.6 °F 100% 30.00 in 0.8 mi Calm Calm - N/A   Clear
5:05 AM 62.6 °F - 62.6 °F 100% 30.00 in 0.5 mi Calm Calm - N/A Fog Fog
5:09 AM 62.6 °F - 62.6 °F 100% 30.00 in 0.2 mi Calm Calm - N/A Fog Fog
5:55 AM 62.8 °F - 62.8 °F 100% 30.02 in 0.2 mi Calm Calm - N/A Fog Fog
6:48 AM 64.4 °F - 64.4 °F 100% 30.03 in 0.5 mi Calm Calm - N/A Fog Fog
6:51 AM 66.2 °F - 66.2 °F 100% 30.03 in 0.8 mi West 3.5 mph - N/A   Clear
6:53 AM 66.2 °F - 66.2 °F 100% 30.03 in 1.2 mi West 3.5 mph - N/A   Clear
6:54 AM 66.2 °F - 66.2 °F 100% 30.03 in 2.0 mi WNW 3.5 mph - N/A   Clear
6:55 AM 66.2 °F - 66.2 °F 100% 30.03 in 3.0 mi WNW 3.5 mph - N/A   Clear
7:55 AM 73.4 °F - 73.4 °F 100% 30.04 in 10.0 mi West 4.6 mph - N/A   Clear
8:55 AM 78.8 °F - 78.8 °F 100% 30.05 in 10.0 mi NW 5.8 mph - N/A   Clear
9:55 AM 84.2 °F 92.3 °F 75.2 °F 74% 30.05 in 10.0 mi NW 6.9 mph - N/A   Clear
10:55 AM 86.0 °F 91.8 °F 71.6 °F 62% 30.04 in 10.0 mi WNW 6.9 mph - N/A   Scattered Clouds
11:55 AM 89.6 °F 93.4 °F 68.0 °F 49% 30.04 in 10.0 mi Variable 3.5 mph - N/A   Mostly Cloudy
12:55 PM 91.4 °F 95.4 °F 68.0 °F 46% 30.03 in 10.0 mi Calm Calm - N/A   Mostly Cloudy
1:55 PM 91.4 °F 92.1 °F 62.6 °F 38% 30.01 in 10.0 mi Calm Calm - N/A   Mostly Cloudy
2:55 PM 89.6 °F 92.2 °F 66.2 °F 46% 30.00 in 10.0 mi Calm Calm - N/A   Mostly Cloudy
3:55 PM 89.6 °F 91.1 °F 64.4 °F 43% 29.99 in 10.0 mi Calm Calm - N/A   Mostly Cloudy
4:55 PM 91.4 °F 93.2 °F 64.4 °F 41% 29.97 in 10.0 mi ENE 3.5 mph - N/A   Mostly Cloudy
5:55 PM 89.6 °F 92.2 °F 66.2 °F 46% 29.97 in 10.0 mi Calm Calm - N/A   Mostly Cloudy
6:55 PM 86.0 °F 90.4 °F 69.8 °F 58% 29.97 in 10.0 mi West 4.6 mph - N/A   Mostly Cloudy
7:55 PM 84.2 °F 88.4 °F 69.8 °F 62% 29.97 in 10.0 mi West 4.6 mph - N/A   Mostly Cloudy
8:55 PM 77.0 °F - 73.4 °F 89% 29.98 in 10.0 mi North 3.5 mph - N/A   Mostly Cloudy
9:55 PM 75.2 °F - 75.2 °F 100% 29.99 in 10.0 mi Calm Calm - N/A   Mostly Cloudy
10:55 PM 73.4 °F - 73.4 °F 100% 29.99 in 10.0 mi Calm Calm - N/A   Mostly Cloudy
11:55 PM 71.6 °F - 71.6 °F 100% 29.98 in 10.0 mi Calm Calm - N/A   Mostly Cloudy